Location: Fontevrault
(47.1823°N, 0.0493°E)
Time: 09:02:22
(UTC+00:00)

Meteor 2-10 - Pass Details

Date: 16 June 2021
Orbit: 738 x 868 km, 81.2° (Epoch: 01 August)

Event Time Altitude Azimuth Distance (km) Brightness Sun altitude
Rises 20:33:35 0° 346° (NNW) 3,186 8.3 -5.5°
Reaches altitude 10° 20:35:56 10° 344° (NNW) 2,260 7.5 -5.7°
Maximum altitude 20:40:57 69° 262° (W) 800 4.3 -6.3°
Drops below altitude 10° 20:46:01 10° 180° (S) 2,283 6.0 -7.0°
Sets 20:48:23 0° 178° (S) 3,220 6.8 -7.2°
Enters shadow 20:48:24 - 178° (S) 3,227 6.8 -7.2°
